User: anonymous   Login
Location: Newark
(35.2672°N, 80.7344°W)
Time: 02:28:10
(UTC+00:00)
Language:

Altair - Orbit

View from above orbital plane
View from above orbital plane
View from above satellite
View from above satellite

Ground track
Ground track

The orbit data is extracted from the following two-line orbital elements,

1    50U 60009B   20026.21994365 -.00000054  00000-0  28206-3 0  9990
2    50  47.2286 205.8182 0113334 258.7649 100.0384 12.20109046653182
Epoch (UTC): 26 January 2020 05:16:43
Eccentricity: 0.0113334
inclination: 47.2286°
perigee height: 1502 km
apogee height: 1682 km
right ascension of ascending node: 205.8182°
argument of perigee: 258.7649°
revolutions per day: 12.20109046
mean anomaly at epoch: 100.0384°
orbit number at epoch: 65318

The dashed part of the orbit path shows where the satellite is in the earth's shadow,  

DLR